Weather History for K6R6 - July, 2014

Change the Weather History Date:

Saturday, July 5, 2014

  Actual Average (KFST) Record (KFST)
Temperature  
Mean Temperature 86 °F -  
Max Temperature 98 °F 93 °F 102 °F (2004)
Min Temperature 75 °F 68 °F 66 °F (2002)
Cooling Degree Days 20    
Growing Degree Days 36 (Base 50)    
Moisture  
Dew Point 60 °F    
Average Humidity 43    
Maximum Humidity 71    
Minimum Humidity 26    
Precipitation  
Precipitation 0.00 in - - ()
Sea Level Pressure  
Sea Level Pressure 30.00 in    
Wind  
Wind Speed 12 mph (ESE)    
Max Wind Speed 21 mph    
Max Gust Speed 30 mph    
Averages and records for this station are not official NWS values.
T = Trace of Precipitation, MM = Missing Value Source: NWS Daily Summary

Daily Weather History Graph

Daily Weather History Graph

Search for Another Location

Airport or City:

Trip Planner

Search our weather history database for the weather conditions in past years. The results will help you decide how hot, cold, wet, or windy it might be!

Date:

Astronomy

Jul. 05, 2014 Rise Set
Actual Time 6:52 AM CDT 8:53 PM CDT
Civil Twilight 6:25 AM CDT 9:21 PM CDT
Nautical Twilight 5:52 AM CDT 9:54 PM CDT
Astronomical Twilight 5:17 AM CDT 10:29 PM CDT
Moon 2:14 PM CDT (7/5) 1:20 AM CDT (7/5)
Length of Visible Light 14h 55m
Length of Day
14h 00m
First Quarter, 52% of the Moon is Illuminated
Jul 5
First Quarter
Jul 12
Full
Jul 18
Last Quarter
Jul 26
New
Aug 3
First Quarter

Hourly Weather History & Observations

Time (CDT) Temp. Heat Index Dew Point Humidity Pressure Visibility Wind Dir Wind Speed Gust Speed Precip Events Conditions
12:53 AM 84.0 °F 83.0 °F 55.9 °F 38% 30.03 in - ESE 13.8 mph 20.7 mph N/A   Unknown
1:53 AM 82.0 °F 82.7 °F 61.0 °F 49% 30.02 in - ESE 12.7 mph - N/A   Unknown
2:53 AM 81.0 °F 81.9 °F 62.1 °F 52% 30.03 in - East 10.4 mph - N/A   Unknown
3:53 AM 79.0 °F - 64.0 °F 60% 30.03 in - East 10.4 mph - N/A   Unknown
4:53 AM 77.0 °F - 64.9 °F 66% 30.04 in - East 6.9 mph - N/A   Unknown
5:53 AM 75.9 °F - 64.9 °F 69% 30.05 in - East 8.1 mph - N/A   Unknown
6:53 AM 75.0 °F - 64.9 °F 71% 30.06 in - East 3.5 mph - N/A   Unknown
7:53 AM 77.0 °F - 64.9 °F 66% 30.07 in - ENE 6.9 mph - N/A   Unknown
8:53 AM 81.0 °F 82.5 °F 64.0 °F 56% 30.08 in - ESE 8.1 mph - N/A   Unknown
9:53 AM 84.0 °F 84.9 °F 63.0 °F 49% 30.07 in - SE 12.7 mph - N/A   Unknown
10:53 AM 88.0 °F 87.9 °F 61.0 °F 40% 30.05 in - SE 11.5 mph 23.0 mph N/A   Unknown
11:53 AM 90.0 °F 89.7 °F 60.1 °F 37% 30.04 in - SSE 15.0 mph 24.2 mph N/A   Unknown
12:53 PM 93.0 °F 92.3 °F 59.0 °F 32% 30.03 in - SE 13.8 mph - N/A   Unknown
1:53 PM 95.0 °F 94.0 °F 57.9 °F 29% 30.01 in - ESE 15.0 mph 25.3 mph N/A   Unknown
2:53 PM 96.1 °F 94.8 °F 57.0 °F 27% 29.99 in - ESE 17.3 mph 26.5 mph N/A   Unknown
3:53 PM 96.1 °F 94.5 °F 55.9 °F 26% 29.97 in - ESE 18.4 mph 27.6 mph N/A   Unknown
4:53 PM 96.1 °F 94.5 °F 55.9 °F 26% 29.95 in - ESE 18.4 mph 29.9 mph N/A   Unknown
5:53 PM 96.1 °F 94.5 °F 55.9 °F 26% 29.93 in - ESE 16.1 mph 28.8 mph N/A   Unknown
6:53 PM 95.0 °F 93.7 °F 57.0 °F 28% 29.92 in - East 19.6 mph 28.8 mph N/A   Unknown
7:53 PM 91.9 °F 90.8 °F 57.9 °F 32% 29.93 in - ESE 20.7 mph - N/A   Unknown
8:53 PM 89.1 °F 88.2 °F 59.0 °F 36% 29.94 in - ESE 15.0 mph 23.0 mph N/A   Unknown
9:53 PM 87.1 °F 86.5 °F 59.0 °F 39% 29.95 in - East 17.3 mph 23.0 mph N/A   Unknown
10:53 PM 86.0 °F 85.7 °F 60.1 °F 41% 29.96 in - East 11.5 mph - N/A   Unknown
11:53 PM 84.9 °F 84.8 °F 60.1 °F 43% 29.96 in - ESE 12.7 mph - N/A   Unknown